This is the latest recevied weather packets stored in our database for station/object N3DXC. If no packets are shown the sender has not sent any weather packets the latest 10 day(s).
| Time | Temp. | Humidity | Pressure | Rain* | Wind** | Luminosity | Snow |
|---|---|---|---|---|---|---|---|
| 1777775398 | 3.33° C | 75% | 1015.7 hPa | 0 mm | - | - | - |
| 1777775098 | 3.33° C | 75% | 1015.7 hPa | 0 mm | - | - | - |
| 1777774499 | 3.89° C | 73% | 1015.7 hPa | 0 mm | - | - | - |
| 1777773898 | 3.89° C | 71% | 1015.7 hPa | 0 mm | - | - | - |
| 1777773298 | 3.89° C | 70% | 1015.7 hPa | 0 mm | - | - | - |
| 1777772998 | 3.89° C | 71% | 1015.7 hPa | 0 mm | - | - | - |
| 1777772698 | 3.89° C | 70% | 1015.6 hPa | 0 mm | - | - | - |
| 1777771198 | 3.89° C | 72% | 1015.6 hPa | 0 mm | - | - | - |
| 1777767898 | 4.44° C | 74% | 1015.2 hPa | 0 mm | - | - | - |
| 1777766098 | 4.44° C | 74% | 1014.9 hPa | 0 mm | - | - | - |
| 1777764898 | 4.44° C | 74% | 1014.7 hPa | 0 mm | - | - | - |
| 1777763398 | 5° C | 73% | 1014.6 hPa | 0 mm | - | - | - |
| 1777761298 | 5° C | 78% | 1014.4 hPa | 0 mm | - | - | - |
| 1777760998 | 5° C | 78% | 1014.4 hPa | 0 mm | - | - | - |
| 1777760698 | 4.44° C | 79% | 1014.4 hPa | 0 mm | - | - | - |
| 1777760398 | 4.44° C | 79% | 1014.4 hPa | 0 mm | - | - | - |
| 1777760098 | 4.44° C | 80% | 1014.4 hPa | 0 mm | - | - | - |
| 1777759800 | 4.44° C | 80% | 1014.5 hPa | 0 mm | - | - | - |
| 1777759198 | 4.44° C | 80% | 1014.4 hPa | 0 mm | - | - | - |
| 1777758598 | 4.44° C | 82% | 1014.3 hPa | 0 mm | - | - | - |
| 1777757998 | 4.44° C | 82% | 1014.3 hPa | 0 mm | - | - | - |
| 1777757698 | 4.44° C | 81% | 1014.3 hPa | 0 mm | - | - | - |
| 1777757398 | 4.44° C | 81% | 1014.2 hPa | 0 mm | - | - | - |
| 1777757098 | 4.44° C | 82% | 1014.2 hPa | 0 mm | - | - | - |
| 1777756799 | 4.44° C | 83% | 1014.2 hPa | 0 mm | - | - | - |
* Rain latest hour (hover to see other rain measurements)
** Current wind speed in m/s (hover to see current wind gust speed)